Quillayute, WA
on Thursday, January 3, 2013

Thursday
Previous Day Next Day
Daily Summary
 ActualAverageRecord
Temperature
Mean Temperature °F 41°F  
Max Temperature 45°F 46°F 58°F (2001)
Min Temperature 25°F 36°F 18°F (1971)
Degree Days
Heating Degree Days 30 24  
Month to date heating degree days 72  
Since 1 July heating degree days 2550  
Cooling Degree Days 0 0  
Month to date cooling degree days 0  
Year to date cooling degree days 0  
Moisture
Dew Point 34°F   
Average Humidity 93    
Maximum Humidity 100    
Minimum Humidity 73    
Precipitation
Precipitation 0.41 in 0.47 in 2.47 in (1969)
Month to date precipitation 1.39  
Year to date precipitation 1.39  
Wind
Wind Speed 4 mph   
Max Wind Speed 14 mph   
Max Gust Speed 20 mph   
Visibility 3 miles   
Events Fog , Rain   

Key: T is trace of precipitation, MM is missing value
Source: NWS Daily Summary
Time(PST)TemperatureDew PointHumidity Pressure Visibility Wind DirectionWind SpeedGust SpeedPrecipitationEvents Conditions
12:53 AM 30.9°F 30.0°F 96% 30.14 in 5.0 miles East 4.6 mph - N/A   Clear
1:53 AM 30.9°F 30.0°F 96% 30.12 in 5.0 miles East 5.8 mph - N/A   Clear
2:53 AM 28.9°F 28.0°F 96% 30.11 in 4.0 miles East 3.5 mph - N/A   Clear
3:14 AM 28.4°F 28.4°F 100% 30.10 in 1.2 miles Calm Calm - N/A   Clear
3:22 AM 28.4°F 26.6°F 93% 30.10 in 0.8 miles East 3.5 mph - N/A   Clear
3:25 AM 28.4°F 28.4°F 100% 30.10 in 2.5 miles East 3.5 mph - N/A   Clear
3:32 AM 30.2°F 28.4°F 93% 30.10 in 5.0 miles Calm Calm - N/A   Clear
3:53 AM 28.0°F 27.0°F 96% 30.10 in 4.0 miles Calm Calm - N/A   Clear
4:37 AM 30.2°F 30.2°F 100% 30.08 in 1.8 miles Calm Calm - N/A   Clear
4:40 AM 28.4°F 28.4°F 100% 30.08 in 0.8 miles Calm Calm - N/A   Clear
4:53 AM 28.9°F 28.0°F 96% 30.08 in 2.0 miles East 3.5 mph - N/A   Clear
5:01 AM 26.6°F 24.8°F 93% 30.07 in 3.0 miles Calm Calm - N/A   Clear
5:53 AM 28.0°F 27.0°F 96% 30.07 in 3.0 miles Calm Calm - N/A   Clear
5:59 AM 26.6°F 26.6°F 100% 30.06 in 1.8 miles Calm Calm - N/A   Clear
6:02 AM 28.4°F 26.6°F 93% 30.06 in 0.8 miles Calm Calm - N/A   Clear
6:14 AM 28.4°F 26.6°F 93% 30.06 in 1.5 miles Calm Calm - N/A   Clear
6:22 AM 28.4°F 28.4°F 100% 30.06 in 3.0 miles East 3.5 mph - N/A   Clear
6:38 AM 24.8°F 24.8°F 100% 30.06 in 1.8 miles East 3.5 mph - N/A   Clear
6:49 AM 26.6°F 24.8°F 93% 30.06 in 3.0 miles East 3.5 mph - N/A   Clear
6:53 AM 26.1°F 25.0°F 96% 30.06 in 3.0 miles Calm Calm - N/A   Clear
7:04 AM 26.6°F 26.6°F 100% 30.05 in 2.0 miles Calm Calm - N/A   Clear
7:08 AM 26.6°F 26.6°F 100% 30.05 in 1.0 miles Calm Calm - N/A   Clear
7:15 AM 28.4°F 26.6°F 93% 30.05 in 0.5 miles Calm Calm - N/A Fog Light Freezing Fog
7:20 AM 28.4°F 26.6°F 93% 30.05 in 2.0 miles East 3.5 mph - N/A   Clear
7:29 AM 28.4°F 26.6°F 93% 30.05 in 4.0 miles East 4.6 mph - N/A   Clear
7:53 AM 28.0°F 27.0°F 96% 30.06 in 5.0 miles East 3.5 mph - N/A   Clear
8:53 AM 30.0°F 30.0°F 100% 30.06 in 3.0 miles East 3.5 mph - N/A   Clear
9:53 AM 35.1°F 32.0°F 89% 30.07 in 4.0 miles East 6.9 mph - N/A   Clear
10:53 AM 39.9°F 34.0°F 79% 30.07 in 5.0 miles East 4.6 mph - N/A   Haze
11:53 AM 44.1°F 37.0°F 76% 30.05 in 5.0 miles East 5.8 mph - N/A   Haze
12:53 PM 44.1°F 36.0°F 73% 30.03 in 5.0 miles Calm Calm - N/A   Haze
1:53 PM 42.1°F 36.0°F 79% 30.04 in 5.0 miles East 5.8 mph - N/A   Haze
2:50 PM 41.0°F 37.4°F 87% 30.03 in 2.0 miles Calm Calm - 0.00 in Rain Light Rain
2:53 PM 42.1°F 37.9°F 85% 30.04 in 2.5 miles Calm Calm - 0.01 in Rain Light Rain
3:16 PM 41.0°F 39.2°F 93% 30.04 in 3.0 miles SSE 9.2 mph 17.3 mph 0.00 in Rain Light Rain
3:24 PM 42.8°F 37.4°F 81% 30.04 in 1.8 miles SE 4.6 mph 17.3 mph 0.01 in Rain Light Rain
3:37 PM 42.8°F 37.4°F 81% 30.03 in 2.5 miles ESE 4.6 mph - 0.02 in Rain Light Rain
3:53 PM 43.0°F 39.0°F 86% 30.04 in 4.0 miles ESE 5.8 mph - 0.02 in Rain Light Rain
4:07 PM 42.8°F 39.2°F 87% 30.02 in 2.5 miles Calm Calm - 0.01 in Rain Light Rain
4:17 PM 42.8°F 39.2°F 87% 30.02 in 4.0 miles ENE 3.5 mph - 0.01 in Rain Light Rain
4:53 PM 43.0°F 39.0°F 86% 30.02 in 5.0 miles SE 5.8 mph - 0.02 in Rain Light Rain
5:31 PM 42.8°F 39.2°F 87% 30.03 in 2.5 miles SSE 9.2 mph 19.6 mph 0.04 in Rain Rain
5:53 PM 41.0°F 39.9°F 96% 30.03 in 2.5 miles Calm Calm - 0.10 in Rain Light Rain
6:01 PM 41.0°F 39.2°F 93% 30.02 in 3.0 miles Calm Calm - 0.01 in Rain Light Rain
6:12 PM 41.0°F 39.2°F 93% 30.01 in 2.5 miles NE 4.6 mph - 0.03 in Rain Light Rain
6:53 PM 41.0°F 39.9°F 96% 30.01 in 2.5 miles ENE 4.6 mph - 0.10 in Rain Light Rain
7:09 PM 39.2°F 39.2°F 100% 30.01 in 1.2 miles ENE 8.1 mph - 0.00 in Rain Light Rain
7:43 PM 39.2°F 37.4°F 93% 30.00 in 1.5 miles East 3.5 mph - 0.04 in Rain Light Rain
7:53 PM 39.0°F 37.9°F 96% 30.01 in 2.0 miles ENE 4.6 mph - 0.05 in Rain Light Rain
7:58 PM 39.2°F 37.4°F 93% 30.00 in 1.2 miles ENE 4.6 mph - 0.00 in Rain Light Rain
8:15 PM 39.2°F 39.2°F 100% 30.00 in 0.8 miles NE 5.8 mph - 0.02 in Rain Light Rain
8:42 PM 39.2°F 39.2°F 100% 30.00 in 1.0 miles Variable 3.5 mph - 0.08 in Rain Light Rain
8:49 PM 41.0°F 39.2°F 93% 30.00 in 2.0 miles ENE 6.9 mph - 0.09 in Rain Light Rain
8:53 PM 41.0°F 39.9°F 96% 30.01 in 3.0 miles ENE 5.8 mph - 0.09 in Rain Light Rain
9:01 PM 41.0°F 39.2°F 93% 30.00 in 1.8 miles ENE 5.8 mph - 0.01 in Rain Rain
9:08 PM 41.0°F 39.2°F 93% 30.00 in 3.0 miles East 3.5 mph - 0.02 in Rain Light Rain
9:53 PM 42.1°F 41.0°F 96% 30.02 in 6.0 miles Variable 3.5 mph - 0.02 in   Overcast
10:53 PM 45.0°F 43.0°F 93% 30.04 in 6.0 miles Variable 3.5 mph - N/A   Overcast
11:25 PM 44.6°F 42.8°F 93% 30.05 in 2.5 miles Variable 6.9 mph - N/A   Overcast
11:53 PM 44.1°F 44.1°F 100% 30.06 in 2.5 miles SE 4.6 mph - N/A   Overcast
Moon Phase
Jan. 03 Jan. 04 Jan. 11 Jan. 18 Jan. 26
Sunrise:08:07 AM (PST) Moon Rise:11:53 PM (PST)1/3
Sunset:04:38 PM (PST) Moon Set:10:51 AM (PST)1/3

Copyright © 2014 The Weather Underground, Inc.